Waarnemingen

Advertentie
Mijn weer
Faßberg, Duitsland (10246): temperatuur & dauwpunt: 19.02.2018 06:00:00 - 25.02.2018 06:00:00 (CET)Faßberg, Duitsland (10246): temperatuur -5cm: 19.02.2018 06:00:00 - 25.02.2018 06:00:00 (CET)Faßberg, Duitsland (10246): temperatuur -20cm & temperatuur -100cm: 19.02.2018 06:00:00 - 25.02.2018 06:00:00 (CET)Faßberg, Duitsland (10246): windsnelheid & windstoten: 19.02.2018 06:00:00 - 25.02.2018 06:00:00 (CET)Faßberg, Duitsland (10246): windrichting: 19.02.2018 06:00:00 - 25.02.2018 06:00:00 (CET)Faßberg, Duitsland (10246): luchtdruk: 19.02.2018 06:00:00 - 25.02.2018 06:00:00 (CET)Faßberg, Duitsland (10246): zicht: 19.02.2018 06:00:00 - 25.02.2018 06:00:00 (CET)
Datum & Tijd tt [°C] td [°C] tt -5cm [°C] tt -20cm [°C] tt -100cm [°C] ff [km/u] ff [kn] fx [km/u] fx [kn] dd ppp [hPa] vv [km]
25.02.2018 06:00:00 -10,4 -12,4 - - - 7 4 - - O 1034,2 40
25.02.2018 05:00:00 -9,4 -12,6 - - - 7 4 - - ONO 1034,5 40
25.02.2018 04:00:00 -9,3 -13,0 - - - 7 4 - - O 1034,2 40
25.02.2018 03:00:00 -8,2 -13,0 - - - 7 4 - - ONO 1034,1 40
25.02.2018 02:00:00 -8,2 -13,0 - - - 11 6 - - O 1034,2 40
25.02.2018 01:00:00 -7,8 -12,8 - - - 11 6 - - OZO 1034,2 40
25.02.2018 00:00:00 -5,5 -12,0 - - - 18 10 - - OZO 1034,0 40
24.02.2018 23:00:00 -5,2 -11,2 - - - 18 10 - - O 1033,9 40
24.02.2018 22:00:00 -4,8 -11,3 - - - 18 10 - - O 1033,5 40
24.02.2018 21:00:00 -4,2 -10,8 - - - 18 10 - - O 1033,1 40
24.02.2018 20:00:00 -3,1 -10,5 - - - 25 14 - - O 1032,6 40
24.02.2018 19:00:00 -2,7 -10,0 - - - 18 10 - - O 1032,4 40
24.02.2018 18:00:00 -2,3 -10,2 - - - 25 14 47 25 O 1031,9 40
24.02.2018 17:00:00 -0,7 -11,7 - - - 25 14 - - O 1031,5 30
24.02.2018 16:00:00 0,0 -11,2 - - - 25 14 - - O 1031,3 30
24.02.2018 15:00:00 0,2 -10,6 0,1 0,2 - 25 14 50 27 O 1031,2 30
24.02.2018 14:00:00 0,9 -11,1 - - - 25 14 - - OZO 1031,1 30
24.02.2018 13:00:00 0,2 -10,8 - - - 29 16 - - OZO 1031,3 30
24.02.2018 12:00:00 0,8 -9,8 - - - 32 18 47 25 OZO 1031,2 30
24.02.2018 11:00:00 -0,4 -5,9 - - - 25 14 - - O 1031,3 30
24.02.2018 10:00:00 -1,0 -4,8 - - - 25 14 - - O 1031,1 30
24.02.2018 09:00:00 -1,9 -5,7 - - - 18 10 - - O 1030,8 30
24.02.2018 08:00:00 -2,9 -6,7 -1,6 0,2 2,9 14 8 - - O 1030,5 30
24.02.2018 07:00:00 -3,4 -7,5 - - - 14 8 - - O 1030,2 40
24.02.2018 06:00:00 -5,8 -8,4 - - - 7 4 - - O 1029,9 40
24.02.2018 05:00:00 -7,7 -10,0 - - - 7 4 - - O 1029,9 40
24.02.2018 04:00:00 -7,1 -9,5 - - - 11 6 - - ONO 1029,5 40
24.02.2018 03:00:00 -7,1 -10,0 - - - 7 4 - - OZO 1029,3 40
24.02.2018 02:00:00 -6,2 -9,7 - - - 7 4 - - O 1029,6 40
24.02.2018 01:00:00 -6,4 -10,0 - - - 7 4 - - O 1029,4 40
24.02.2018 00:00:00 -6,9 -10,7 - - - 11 6 - - O 1029,2 40
23.02.2018 23:00:00 -6,0 -10,5 - - - 14 8 - - O 1028,7 40
23.02.2018 22:00:00 -5,8 -11,0 - - - 14 8 - - O 1028,5 40
23.02.2018 21:00:00 -5,6 -12,2 - - - 11 6 - - O 1028,1 40
23.02.2018 20:00:00 -5,1 -12,2 - - - 11 6 - - O 1027,5 30
23.02.2018 19:00:00 -4,6 -11,5 - - - 11 6 - - O 1027,3 30
23.02.2018 18:00:00 -2,8 -11,0 - - - 11 6 - - O 1026,8 20
23.02.2018 17:00:00 -0,8 -9,5 - - - 14 8 - - O 1026,6 20
23.02.2018 16:00:00 0,1 -9,4 - - - 22 12 - - OZO 1026,6 20
23.02.2018 15:00:00 0,2 -8,6 0,9 0,3 - 22 12 - - O 1026,9 20
23.02.2018 14:00:00 -0,7 -8,1 - - - 22 12 - - OZO 1027,2 20
23.02.2018 13:00:00 -1,6 -8,1 - - - 18 10 - - O 1027,5 20
23.02.2018 12:00:00 -2,9 -8,2 - - - 22 12 - - O 1027,6 20
23.02.2018 11:00:00 -1,8 -7,7 - - - 22 12 - - O 1027,5 20
23.02.2018 10:00:00 -2,9 -8,2 - - - 22 12 - - O 1027,3 25
23.02.2018 09:00:00 -3,1 -7,4 - - - 14 8 - - O 1027,2 20
23.02.2018 08:00:00 -4,1 -7,2 -0,3 0,3 3,0 14 8 - - O 1027,1 20
23.02.2018 07:00:00 -2,7 -5,5 - - - 18 10 - - O 1026,6 17
23.02.2018 06:00:00 -2,5 -4,7 - - - 14 8 - - O 1026,2 15
23.02.2018 05:00:00 -2,0 -3,7 - - - 11 6 - - O 1026,1 15
23.02.2018 04:00:00 -1,2 -3,2 - - - 11 6 - - O 1025,9 14
23.02.2018 03:00:00 -1,0 -3,0 - - - 11 6 - - O 1026,0 20
23.02.2018 02:00:00 -1,1 -3,3 - - - 11 6 - - ONO 1026,1 20
23.02.2018 01:00:00 -1,1 -3,5 - - - 11 6 - - ONO 1026,2 18
23.02.2018 00:00:00 -1,0 -3,5 - - - 11 6 - - O 1026,3 15
22.02.2018 23:00:00 -0,6 -3,3 - - - 11 6 - - O 1026,1 15
22.02.2018 22:00:00 -0,4 -3,1 - - - 11 6 - - ONO 1026,1 12
22.02.2018 21:00:00 -0,3 -3,1 - - - 14 8 - - ONO 1026,2 12
22.02.2018 20:00:00 -0,7 -3,5 - - - 7 4 - - O 1026,3 10
22.02.2018 19:00:00 0,0 -3,7 - - - 7 4 - - ONO 1026,0 12
22.02.2018 18:00:00 0,6 -4,4 - - - 11 6 - - ONO 1026,1 15
22.02.2018 17:00:00 1,6 -4,3 - - - 11 6 - - ONO 1026,0 20
22.02.2018 16:00:00 2,2 -4,9 - - - 14 8 - - O 1026,0 20
22.02.2018 15:00:00 2,3 -5,6 0,9 0,3 - 18 10 - - OZO 1026,1 20
22.02.2018 14:00:00 2,3 -5,3 - - - 14 8 - - OZO 1026,7 15
22.02.2018 13:00:00 2,4 -4,5 - - - 18 10 - - OZO 1027,2 15
22.02.2018 12:00:00 1,3 -4,9 - - - 18 10 - - O 1027,6 15
22.02.2018 11:00:00 0,8 -4,4 - - - 11 6 - - O 1027,7 14
22.02.2018 10:00:00 -0,8 -3,3 - - - 11 6 - - O 1027,7 10
22.02.2018 09:00:00 -3,6 -4,5 - - - 4 2 - - ONO 1027,9 7
22.02.2018 08:00:00 -6,2 -7,2 -2,3 0,3 3,0 7 4 - - O 1027,7 6
22.02.2018 07:00:00 -5,9 -6,8 - - - 4 2 - - ZO 1027,5 8
22.02.2018 06:00:00 -6,7 -7,6 - - - 7 4 - - ONO 1027,4 15
22.02.2018 05:00:00 -7,3 -8,2 - - - 4 2 - - O 1027,3 25
22.02.2018 04:00:00 -6,2 -7,0 - - - 4 2 - - NNO 1027,5 30
22.02.2018 03:00:00 -6,7 -7,2 - - - 4 2 - - OZO 1027,7 25
22.02.2018 02:00:00 -5,4 -6,3 - - - 4 2 - - ONO 1028,0 25
22.02.2018 01:00:00 -5,1 -6,2 - - - 4 2 - - NO 1028,1 25
22.02.2018 00:00:00 -5,0 -6,3 - - - 4 2 - - ONO 1027,9 25
21.02.2018 23:00:00 -5,3 -7,1 - - - 7 4 - - O 1028,2 25
21.02.2018 22:00:00 -4,5 -6,8 - - - 7 4 - - ONO 1028,0 30
21.02.2018 21:00:00 -3,0 -7,1 - - - 7 4 - - ONO 1027,6 30
21.02.2018 20:00:00 -1,2 -6,0 - - - 7 4 - - ONO 1027,4 25
21.02.2018 19:00:00 -0,3 -6,5 - - - 7 4 - - ONO 1027,0 20
21.02.2018 18:00:00 0,2 -6,7 - - - 7 4 - - ONO 1026,6 10
21.02.2018 17:00:00 1,6 -7,3 - - - 11 6 - - ONO 1026,4 14
21.02.2018 16:00:00 1,9 -7,1 - - - 11 6 - - NO 1026,4 18
21.02.2018 15:00:00 1,8 -7,4 0,1 0,3 - 11 6 - - O 1026,7 18
21.02.2018 14:00:00 2,2 -7,1 - - - 14 8 - - ONO 1027,0 16
21.02.2018 13:00:00 2,3 -7,1 - - - 11 6 - - O 1027,3 16
21.02.2018 12:00:00 1,3 -5,9 - - - 14 8 - - O 1027,3 14
21.02.2018 11:00:00 0,1 -4,8 - - - 7 4 - - O 1027,5 8
21.02.2018 10:00:00 -3,0 -4,9 - - - 4 2 - - NO 1027,6 7
21.02.2018 09:00:00 -5,2 -6,3 - - - 4 2 - - N 1026,6 6
21.02.2018 08:00:00 -6,6 -7,5 -2,6 0,3 3,1 4 2 - - ONO 1027,4 6
21.02.2018 07:00:00 -6,4 -7,3 - - - 4 2 - - O 1026,7 4,5
21.02.2018 06:00:00 -6,0 -7,0 - - - 4 2 - - O 1026,6 7
21.02.2018 05:00:00 -5,9 -6,6 - - - 4 2 - - NO 1026,4 7
21.02.2018 04:00:00 -4,9 -6,0 - - - 4 2 - - NO 1026,2 7
21.02.2018 03:00:00 -5,9 -7,1 - - - 11 6 - - O 1026,0 8
21.02.2018 02:00:00 -5,3 -6,7 - - - 11 6 - - O 1026,0 8
21.02.2018 01:00:00 -5,0 -6,8 - - - 7 4 - - ONO 1025,6 8
21.02.2018 00:00:00 -5,2 -6,9 - - - 11 6 - - ONO 1025,2 8
20.02.2018 23:00:00 -4,9 -6,8 - - - 11 6 - - ONO 1024,7 8
20.02.2018 22:00:00 -3,7 -5,6 - - - 7 4 - - O 1024,1 8
20.02.2018 21:00:00 -1,4 -4,4 - - - 7 4 - - NO 1023,7 8
20.02.2018 20:00:00 -0,7 -4,5 - - - 7 4 - - ONO 1023,2 6
20.02.2018 19:00:00 -1,1 -5,2 - - - 7 4 - - O 1022,4 8
20.02.2018 18:00:00 0,0 -4,9 - - - 7 4 - - O 1021,9 10
20.02.2018 17:00:00 2,1 -4,8 - - - 11 6 - - O 1021,2 10
20.02.2018 16:00:00 2,6 -5,3 - - - 18 10 - - ONO 1020,8 10
20.02.2018 15:00:00 2,9 -5,3 0,4 0,2 - 18 10 - - O 1020,6 10
20.02.2018 14:00:00 3,1 -5,1 - - - 22 12 - - ONO 1020,5 10
20.02.2018 13:00:00 2,7 -5,1 - - - 22 12 - - O 1020,5 8
20.02.2018 12:00:00 2,2 -4,1 - - - 18 10 - - O 1020,6 8
20.02.2018 11:00:00 1,2 -3,4 - - - 14 8 - - O 1020,6 9
20.02.2018 10:00:00 -0,9 -3,2 - - - 11 6 - - O 1020,8 7
20.02.2018 09:00:00 -4,0 -5,0 - - - 7 4 - - O 1020,7 3,5
20.02.2018 08:00:00 -4,7 -5,4 -1,4 0,2 3,1 4 2 - - ONO 1020,5 2,0
20.02.2018 07:00:00 -4,8 -5,4 - - - 7 4 - - O 1020,2 3,0
20.02.2018 06:00:00 -5,1 -5,8 - - - 4 2 - - OZO 1020,2 5
20.02.2018 05:00:00 -5,2 -5,8 - - - 7 4 - - OZO 1020,1 7
20.02.2018 04:00:00 -4,0 -4,8 - - - 4 2 - - O 1020,0 8
20.02.2018 03:00:00 -3,8 -4,6 - - - 4 2 - - N 1019,8 8
20.02.2018 02:00:00 -4,3 -4,8 - - - 4 2 - - ZO 1019,8 10
20.02.2018 01:00:00 -3,0 -4,0 - - - 4 2 - - O 1019,9 10
20.02.2018 00:00:00 -2,5 -4,0 - - - 4 2 - - ONO 1019,8 25
19.02.2018 23:00:00 -2,2 -3,9 - - - 4 2 - - NO 1019,6 25
19.02.2018 22:00:00 -2,3 -4,3 - - - 4 2 - - ONO 1019,6 25
19.02.2018 21:00:00 -1,7 -4,1 - - - 0 0 - - N 1019,9 20
19.02.2018 20:00:00 -2,2 -4,5 - - - 7 4 - - O 1020,0 15
19.02.2018 19:00:00 -2,7 -5,5 - - - 4 2 - - O 1020,1 15
19.02.2018 18:00:00 0,9 -4,3 - - - 4 2 - - ZZW 1019,7 10
19.02.2018 17:00:00 3,2 -4,4 - - - 7 4 - - Z 1019,6 10
19.02.2018 16:00:00 4,7 -4,2 - - - 7 4 - - N 1019,6 10
19.02.2018 15:00:00 5,1 -4,2 0,1 0,2 - 11 6 - - ZZW 1019,7 10
19.02.2018 14:00:00 4,6 -3,6 - - - 11 6 - - W 1019,9 12
19.02.2018 13:00:00 3,6 -3,7 - - - 11 6 - - WZW 1020,7 12
19.02.2018 12:00:00 3,2 -3,6 - - - 11 6 - - WZW 1021,3 10
19.02.2018 11:00:00 1,4 -2,8 - - - 7 4 - - W 1021,6 10
19.02.2018 10:00:00 -0,4 -2,6 - - - 4 2 - - N 1022,0 10
19.02.2018 09:00:00 -1,3 -3,2 - - - 4 2 - - ZW 1022,3 10
19.02.2018 08:00:00 -2,9 -4,0 -0,4 0,2 3,1 4 2 - - Z 1022,4 10
19.02.2018 07:00:00 -2,0 -4,0 - - - 4 2 - - ZZW 1022,3 25
19.02.2018 06:00:00 -2,7 -3,7 - - - 4 2 - - ZW 1022,4 25

tt = temperatuur
td = dauwpunt
tt -5cm = temperatuur -5cm
tt -20cm = temperatuur -20cm
tt -100cm = temperatuur -100cm
ff = windsnelheid
fx = windstoten
dd = windrichting
ppp = luchtdruk
vv = zicht

Weerstations in de omgeving